Погода в Лащ-Таябе

Россия / Чувашская Республика     55°01′44″N   47°59′51″E
темп.,
°C
ветер,
м/с
пор.,
м/с
влажн.,
%
обл.,
%
осадки,
мм/ч
давл.,
гПа
погр.,
м
8 мая, сб
сб800:00+9ссз5793100 4.4 1015365
03:00+8ссв4892100 6.5 1017427
06:00+8с2494100 0.6 1017259
09:00+9с2393100 1.0 1018255
12:00+12вюв2280100 0.1 1017708
15:00+15ю2366100 0.1 1015974
18:00+16вюв357241 0.0 1013199
21:00+12юв5137768 0.0 1013262
9 мая, вс
вс900:00+11ююв41078100 0.0 1012193
03:00+10ююв4783100 0.0 1012114
06:00+11ююв51179100 0.0 1012273
09:00+16ююв61060100 0.0 1011479
12:00+20ююв7950100 0.0 10111068
15:00+21ююв71154100 0.0 10111691
18:00+18ююз61164100 0.8 1011476
21:00+14зюз1196100 10.7 101375
10 мая, пн
пн1000:00+10сз5793100 0.8 1016266
03:00+9сз5891100 0.8 1018358
06:00+8с6990100 0.1 1020318
09:00+9ссз6783100 0.2 1022542
12:00+11с7876100 0.0 1024661
15:00+10с7879100 0.0 1025588
18:00+9ссв6983100 0.0 1026520
21:00+8ссв61287100 0.0 1028454
11 мая, вт
вт1100:00+7ссв51189100 0.0 1028382
03:00+6ссв51288100 0.0 1029379
06:00+7св6128173 0.0 1030405
09:00+12св6860100 0.0 1030601
12:00+15св6750100 0.0 1030839
15:00+17всв5646100 0.0 1029923
18:00+15всв4859100 0.0 1030314
21:00+11всв396899 0.0 1030158
12 мая, ср
ср1200:00+10всв386811 0.0 1030143
03:00+9всв3770100 0.0 1030126
06:00+10в39705 0.0 1030236
09:00+16в575210 0.0 1030507
12:00+19в564880 0.0 1030878
15:00+20в5546100 0.0 1029927
18:00+18всв485885 0.0 1028275
21:00+13всв356496 0.0 102877